[[{"header":{"parameterUnit":"m.s-1","parameterCategory":1,"la1":30.2991,"la2":30.254,"lo1":-89.0895,"lo2":-89.0444,"dy":0.0017,"dx":0.0017,"nx":28,"ny":28,"refTime":"2024-06-05T21:00:00:Z","depth":0,"parameterNumber":2,"parameterNumberName":"U-component_of_WINDS"},"data":[0,0,0,0,0,0,0,0,0,0,0,0,0,0,0,0,0,0,0,0,0,0,0,0,0,0,0,0,0,0,0,0,0,0,0,0,0,0,0,0,0,0,0,0,0,0,0,0,0,0,0,0,0,0,0,0,0,0,2.1787,2.1787,0,2.1794,2.1794,2.1794,2.1755,2.1754,2.1753,2.1752,2.1759,2.176,2.1761,0,0,0,0,0,0,0,0,0,0,0,0,0,2.174,2.1741,2.1787,2.1787,2.1787,2.1794,2.1794,2.1794,2.1756,2.1754,2.1753,2.1752,2.1758,2.176,2.1761,0,0,0,0,0,0,0,0,0,0,0,0,0,2.1755,2.1742,2.1787,2.1769,2.1767,2.1794,2.1794,2.1794,2.1756,2.1754,2.1753,2.1751,2.1758,2.176,2.1762,2.1806,0,0,2.1767,2.1768,0,0,0,0,0,0,0,0,2.1754,2.1757,2.1771,2.177,2.1768,2.1772,2.178,2.1798,2.1756,2.176,2.1752,2.175,2.1765,2.1766,2.1771,2.1806,2.1807,2.1767,2.1768,2.1769,2.177,0,0,0,0,0,0,0,2.1753,2.1756,2.179,2.1772,2.177,2.176,2.1761,2.1783,2.1772,2.176,2.1757,2.1758,2.1763,2.1769,2.1771,2.1807,2.1767,2.1769,2.177,2.1771,2.188,2.1882,0,0,0,0,0,0,2.1755,2.1756,2.1789,2.179,2.1757,2.1762,2.1763,2.1773,2.1771,2.1769,2.176,2.1756,2.1767,2.1768,2.1771,2.1823,2.1769,2.1771,2.1772,2.1878,2.188,2.1882,0,0,0,0,0,0,2.1754,2.1758,2.1789,2.1772,2.1775,2.1765,2.1776,2.1774,2.1779,2.1771,2.1769,2.1768,2.1766,2.1768,2.1798,2.1822,2.1772,2.1773,2.1876,2.1879,2.1881,2.1927,0,0,0,0,0,0,2.1753,2.1758,2.1775,2.1773,2.1776,2.1816,2.1778,2.1775,2.1782,2.1778,2.1778,2.1776,2.1764,2.1795,2.18,2.1824,2.1775,2.1874,2.1877,2.188,2.1923,2.1931,2.1938,0,0,0,0,0,2.1751,2.1787,2.1776,2.178,2.1797,2.1818,2.182,2.1805,2.1785,2.1801,2.1797,2.1776,2.1819,2.1799,2.1803,2.1828,2.1872,2.1876,2.188,2.192,2.193,2.1938,0,0,0,0,0,0,2.1792,2.1786,2.1774,2.181,2.1815,2.1811,2.1831,2.1816,2.1826,2.1822,2.1803,2.1804,2.1836,2.1835,2.1812,2.1872,2.1842,2.1847,2.1871,2.188,2.1887,2.1886,2.1776,0,0,0,0,0,2.1805,2.1822,2.1817,2.1849,2.1852,2.1842,2.185,2.1839,2.1843,2.1844,2.1842,2.1846,2.186,2.187,2.1883,2.1924,2.1923,2.1943,2.1951,2.1957,2.1961,2.1982,2.1991,2.1896,2.1896,2.1896,0,0,2.1832,2.1831,2.1843,2.1857,2.186,2.1878,2.1844,2.1864,2.1877,2.1847,2.1875,2.1874,2.1877,2.1913,2.1928,2.1913,2.1988,2.1962,2.1967,2.1968,2.1988,2.1997,2.2005,2.1898,2.1898,2.1897,0,0,2.1891,2.1892,2.192,2.1923,2.1927,2.192,2.1927,2.1926,2.1924,2.1952,2.193,2.1945,2.1971,2.1974,2.198,2.2042,2.2024,2.2047,2.2084,2.2105,2.2112,2.2119,2.2141,2.2149,2.2051,2.2051,2.2051,0,2.1924,2.195,2.1936,2.1958,2.1965,2.194,2.1967,2.1971,2.1979,2.1985,2.1968,2.2,2.2,2.2036,2.2052,2.2057,2.2064,2.2046,2.2113,2.2119,2.2125,2.2146,2.2154,2.2054,2.2054,2.2053,2.2053,0,2.1991,2.201,2.2032,2.2041,2.205,2.2075,2.2064,2.2076,2.2065,2.2059,2.2088,2.2089,2.2101,2.2109,2.2098,2.2144,2.2135,2.2116,2.2085,2.2137,2.2156,2.2164,2.2058,2.2057,2.2056,2.2055,0,0,2.2073,2.2075,2.2083,2.2087,2.2091,2.2105,2.2129,2.2142,2.2152,2.216,2.2179,2.2202,2.2185,2.2191,2.218,2.2199,2.2248,2.2177,2.2177,2.219,2.2299,2.2312,2.2322,2.2237,2.2238,2.2239,2.2298,0,2.213,2.2171,2.216,2.2201,2.2219,2.2196,2.2217,2.2222,2.2218,2.2232,2.2228,2.2245,2.2221,2.2224,2.2242,2.2238,2.2269,2.2234,2.2254,2.2255,2.2253,2.2332,2.2346,2.2401,2.2306,2.2307,2.2308,0,2.2201,2.2212,2.2255,2.2257,2.2264,2.2283,2.2294,2.2309,2.2314,2.231,2.2318,2.2303,2.2327,2.2298,2.2331,2.2307,2.2315,2.2315,2.2316,2.2317,2.2284,2.2333,2.2418,2.2427,2.2319,2.2318,2.2318,0,2.2257,2.2282,2.2311,2.2315,2.2318,2.2332,2.2334,2.2337,2.2346,2.2356,2.2362,2.2375,2.2381,2.2392,2.2382,2.2361,2.2416,2.2386,2.2413,2.2414,2.2425,2.2424,2.2511,2.2432,2.2432,2.2431,2.2431,0,2.2321,2.2348,2.2336,2.2354,2.2384,2.2371,2.2401,2.24,2.2404,2.2421,2.2402,2.2419,2.2405,2.2421,2.2413,2.2441,2.2445,2.2442,2.244,2.2443,2.2444,2.2447,2.2443,2.2434,2.2433,2.2433,2.2432,0,2.2386,2.2379,2.241,2.241,2.2411,2.2433,2.2434,2.245,2.2446,2.2469,2.2473,2.2467,2.2484,2.2476,2.2494,2.2488,2.2525,2.2518,2.2523,2.2521,2.2549,2.2546,2.2641,2.2653,2.2566,2.2567,2.2568,0,2.2427,2.2447,2.2451,2.2461,2.2465,2.2482,2.2491,2.248,2.249,2.2498,2.2514,2.253,2.2542,2.2572,2.2568,2.2582,2.2575,2.2607,2.2576,2.258,2.2574,2.2573,2.2575,2.2613,2.2614,2.2615,2.2615,0,2.25,2.2496,2.251,2.2524,2.2535,2.2545,2.2554,2.2564,2.2552,2.2565,2.2583,2.2593,2.2612,2.2628,2.2641,2.2642,2.2627,2.2625,2.2632,2.2636,2.2638,2.2636,2.2539,2.2623,2.2622,2.2621,2.2621,2.2621,2.2553,2.2571,2.2576,2.2593,2.2599,2.2607,2.2623,2.2622,2.2637,2.2652,2.2644,2.2665,2.2671,2.2686,2.269,2.2707,2.2694,2.2704,2.2706,2.2709,2.2712,2.2636,2.2709,2.2709,2.2709,2.2708,2.2708,0,2.2625,2.2627,2.2643,2.2656,2.267,2.2655,2.2664,2.2676,2.2695,2.2702,2.2715,2.2736,2.2752,2.2751,2.2766,2.2779,2.2773,2.2784,2.2782,2.2783,2.2723,2.2715,2.2789,2.2789,2.2789,2.2789,2.2789,2.2789,2.2663,2.2692,2.2689,2.2721,2.2723,2.2744,2.2751,2.2759,2.2764,2.2789,2.2802,2.2802,2.2806,2.2821,2.2835,2.2835,2.2841,2.2854,2.2851,2.2795,2.2787,2.2779,2.2772,2.2856,2.2856,2.2908,2.2909,2.2909]},{"header":{"parameterUnit":"m.s-1","parameterCategory":1,"la1":30.2991,"la2":30.254,"lo1":-89.0895,"lo2":-89.0444,"dy":0.0017,"dx":0.0017,"nx":28,"ny":28,"refTime":"2024-06-05T21:00:00:Z","depth":0,"parameterNumber":3,"parameterNumberName":"V-component_of_WINDS"},"data":[0,0,0,0,0,0,0,0,0,0,0,0,0,0,0,0,0,0,0,0,0,0,0,0,0,0,0,0,0,0,0,0,0,0,0,0,0,0,0,0,0,0,0,0,0,0,0,0,0,0,0,0,0,0,0,0,0,0,3.9257,3.9258,0,3.9363,3.9364,3.9365,3.9355,3.9353,3.9351,3.935,3.9451,3.9455,3.9459,0,0,0,0,0,0,0,0,0,0,0,0,0,3.9039,3.9043,3.9257,3.9259,3.926,3.9363,3.9364,3.9365,3.9355,3.9353,3.9351,3.9349,3.9449,3.9454,3.9459,0,0,0,0,0,0,0,0,0,0,0,0,0,3.9138,3.9045,3.9257,3.9267,3.9269,3.9362,3.9364,3.9366,3.9355,3.9353,3.935,3.9348,3.9448,3.9454,3.946,3.9547,0,0,3.9479,3.9482,0,0,0,0,0,0,0,0,3.9133,3.9146,3.9264,3.9267,3.9269,3.9343,3.9324,3.9426,3.9356,3.9322,3.935,3.9347,3.9416,3.9425,3.945,3.9552,3.9556,3.948,3.9483,3.9486,3.9488,0,0,0,0,0,0,0,3.9126,3.9141,3.9299,3.9266,3.9269,3.9264,3.9275,3.9343,3.9381,3.9325,3.9325,3.9338,3.9417,3.9444,3.9452,3.9558,3.9479,3.9485,3.9489,3.9491,3.9736,3.9739,0,0,0,0,0,0,3.9117,3.9136,3.9295,3.9302,3.9194,3.927,3.9283,3.9322,3.9381,3.9388,3.934,3.9337,3.9434,3.9445,3.9456,3.9562,3.9486,3.9492,3.9496,3.9733,3.9737,3.974,0,0,0,0,0,0,3.9113,3.9132,3.9291,3.9219,3.9239,3.9276,3.932,3.9325,3.9352,3.9392,3.9398,3.9361,3.9433,3.9447,3.9525,3.9565,3.9495,3.9501,3.973,3.9734,3.9738,3.9776,0,0,0,0,0,0,3.9107,3.913,3.9166,3.922,3.9243,3.9361,3.9323,3.9329,3.9364,3.9361,3.9413,3.9419,3.9432,3.9516,3.9531,3.9573,3.9505,3.9727,3.9732,3.9737,3.9771,3.978,3.9789,0,0,0,0,0,3.9099,3.917,3.9168,3.9187,3.9288,3.9364,3.9376,3.9392,3.9367,3.9402,3.9427,3.9418,3.9558,3.9524,3.9541,3.9585,3.9724,3.9731,3.9737,3.9767,3.9779,3.9788,0,0,0,0,0,0,3.9117,3.9178,3.9175,3.9267,3.9311,3.9362,3.9406,3.9403,3.9453,3.9448,3.9463,3.9474,3.9553,3.9577,3.9537,3.9673,3.9638,3.9648,3.9655,3.9666,3.9675,3.9668,3.9511,0,0,0,0,0,3.9133,3.9191,3.924,3.9316,3.9338,3.9368,3.9402,3.941,3.9454,3.9472,3.9503,3.9545,3.9599,3.9633,3.9685,3.9774,3.9784,3.9813,3.9821,3.9828,3.9837,3.9885,3.9898,3.976,3.976,3.976,0,0,3.9164,3.9204,3.9239,3.932,3.9355,3.9413,3.9384,3.9446,3.9489,3.9481,3.9558,3.9582,3.9629,3.9713,3.9751,3.9735,3.9877,3.9836,3.9842,3.9846,3.9893,3.9906,3.9918,3.9764,3.9763,3.9763,0,0,3.925,3.9287,3.9355,3.9391,3.9445,3.9464,3.9481,3.9533,3.9549,3.9627,3.9622,3.9671,3.9763,3.9797,3.9827,3.9926,3.9919,3.9942,3.9988,4.0035,4.0046,4.0056,4.0091,4.0104,3.995,3.995,3.995,0,3.9282,3.9372,3.9389,3.9454,3.9489,3.9486,3.9553,3.9586,3.9653,3.9676,3.9657,3.9773,3.9805,3.9897,3.9921,3.9945,3.9962,3.9936,4.0044,4.0054,4.0063,4.0097,4.011,3.9953,3.9952,3.9952,3.9952,0,3.9408,3.947,3.9518,3.9586,3.9626,3.9691,3.9716,3.9754,3.9758,3.9779,3.9857,3.9895,3.9954,3.9977,3.998,4.0069,4.0057,4.0041,4.0006,4.0078,4.011,4.0124,3.9956,3.9955,3.9955,3.9954,0,0,3.9509,3.9587,3.9604,3.9635,3.9694,3.9741,3.9805,3.9865,3.9898,3.9943,3.9996,4.0074,4.006,4.0093,4.01,4.0142,4.0218,4.012,4.0121,4.0137,4.0317,4.033,4.0345,4.0213,4.0216,4.0218,4.0314,0,3.9602,3.972,3.9737,3.9839,3.9896,3.9894,3.995,3.9991,4.0012,4.0061,4.0083,4.0139,4.0115,4.0135,4.0176,4.02,4.0254,4.0193,4.0261,4.0264,4.0251,4.0362,4.0375,4.0464,4.0326,4.0328,4.033,0,3.9727,3.9779,3.9888,3.994,3.9964,4.0014,4.0071,4.0119,4.0164,4.0176,4.0214,4.0216,4.028,4.0243,4.033,4.0289,4.0317,4.0333,4.0337,4.0344,4.0302,4.0372,4.0492,4.0506,4.035,4.0348,4.0347,0,3.9791,3.9888,3.9966,3.9992,4.0054,4.0089,4.0116,4.0159,4.0194,4.0243,4.0265,4.0319,4.0349,4.039,4.0406,4.0377,4.0492,4.0456,4.0503,4.0503,4.0528,4.0526,4.0655,4.0545,4.0545,4.0545,4.0545,0,3.9893,3.996,3.9995,4.0043,4.0117,4.0135,4.0207,4.0232,4.027,4.0321,4.0321,4.0368,4.0387,4.0436,4.0448,4.0519,4.0532,4.0542,4.0545,4.0543,4.0542,4.0562,4.0557,4.0549,4.0548,4.0547,4.0546,0,3.9977,4.0004,4.0089,4.0141,4.0156,4.0208,4.0251,4.0296,4.0317,4.0381,4.0397,4.0429,4.0487,4.0507,4.0576,4.0585,4.0667,4.0664,4.0653,4.0653,4.07,4.0695,4.0846,4.0867,4.0743,4.0744,4.0745,0,4.0042,4.0093,4.0152,4.0187,4.0217,4.0273,4.031,4.0328,4.0366,4.0422,4.046,4.0518,4.0566,4.0659,4.0686,4.0739,4.0737,4.0787,4.0745,4.0742,4.0739,4.0736,4.0741,4.0795,4.0796,4.0797,4.0798,0,4.0152,4.0163,4.0218,4.0277,4.0321,4.0367,4.0412,4.044,4.0465,4.0507,4.0568,4.0605,4.0677,4.0735,4.0789,4.0814,4.081,4.0811,4.0824,4.0823,4.0815,4.082,4.0674,4.0807,4.0806,4.0805,4.0805,4.0805,4.0229,4.0275,4.0324,4.0384,4.042,4.0462,4.0507,4.0534,4.0587,4.0649,4.0655,4.0721,4.0764,4.0837,4.0864,4.0914,4.09,4.092,4.0925,4.093,4.0934,4.0807,4.0924,4.0923,4.0923,4.0923,4.0923,0,4.034,4.0372,4.0427,4.0491,4.0538,4.0532,4.0581,4.062,4.0679,4.072,4.0768,4.0838,4.0894,4.0926,4.0981,4.1015,4.1014,4.1028,4.1026,4.1032,4.0943,4.0926,4.1028,4.1028,4.1028,4.1028,4.1028,4.1028,4.0404,4.0482,4.0498,4.0593,4.0623,4.0689,4.0718,4.0756,4.0789,4.0868,4.0916,4.0937,4.0974,4.1032,4.1082,4.109,4.111,4.1127,4.1133,4.1049,4.1038,4.1028,4.1012,4.1131,4.1131,4.1218,4.1219,4.1219]}]]